| time (UTC) | temp C | wind direction | speed KPH | gust KPH | rain 1hr cm | rain 24hr cm | rain mn cm | humidity % | barometer mb |
| 20260504110516 | 6 | 323 | 0.0 | 4.8 | 0.00 | 0.00 | 0.00 | 71 | 1009.1 |
| 20260504100516 | 5 | 0.0 | 0.0 | 0.00 | 0.00 | 0.00 | 77 | 1008.9 | |
| 20260504081515 | 7 | 0.0 | 0.0 | 0.00 | 0.00 | 0.00 | 68 | 1009.2 | |
| 20260504080536 | 7 | 0.0 | 0.0 | 0.00 | 0.00 | 0.00 | 67 | 1009.3 | |
| 20260504050516 | 8 | 0.0 | 0.0 | 0.00 | 0.00 | 0.00 | 61 | 1009.9 | |
| 20260504045516 | 8 | 17 | 0.0 | 4.8 | 0.00 | 0.00 | 0.00 | 63 | 1010.0 |
| 20260504044516 | 8 | 0.0 | 0.0 | 0.00 | 0.00 | 0.00 | 64 | 1010.1 | |
| 20260504043516 | 7 | 0.0 | 0.0 | 0.00 | 0.00 | 0.00 | 63 | 1010.2 | |
| 20260504042516 | 7 | 0.0 | 0.0 | 0.00 | 0.00 | 0.00 | 63 | 1010.2 | |
| 20260504041516 | 7 | 0.0 | 0.0 | 0.00 | 0.00 | 0.00 | 61 | 1010.2 | |
| 20260504040516 | 7 | 0.0 | 0.0 | 0.00 | 0.00 | 0.00 | 60 | 1010.1 | |
| 20260504035537 | 7 | 0.0 | 0.0 | 0.00 | 0.00 | 0.00 | 61 | 1010.1 | |
| 20260504034516 | 7 | 0.0 | 0.0 | 0.00 | 0.00 | 0.00 | 58 | 1010.0 | |
| 20260504033517 | 7 | 0.0 | 0.0 | 0.00 | 0.00 | 0.00 | 58 | 1009.9 | |
| 20260504032517 | 7 | 0.0 | 0.0 | 0.00 | 0.00 | 0.00 | 58 | 1009.9 | |
| 20260504031516 | 7 | 0.0 | 3.2 | 0.00 | 0.00 | 0.00 | 57 | 1009.9 | |
| 20260504030516 | 7 | 238 | 0.0 | 1.6 | 0.00 | 0.00 | 0.00 | 56 | 1009.9 |
| 20260504025517 | 7 | 0.0 | 0.0 | 0.00 | 0.00 | 0.00 | 55 | 1009.8 | |
| 20260504024516 | 7 | 0.0 | 0.0 | 0.00 | 0.00 | 0.00 | 53 | 1009.7 | |
| 20260504023516 | 7 | 0.0 | 0.0 | 0.00 | 0.00 | 0.00 | 55 | 1009.7 | |
| 20260504022516 | 8 | 0.0 | 0.0 | 0.00 | 0.00 | 0.00 | 54 | 1009.8 | |
| 20260504021516 | 8 | 0.0 | 0.0 | 0.00 | 0.00 | 0.00 | 53 | 1009.8 | |
| 20260504020516 | 8 | 0.0 | 0.0 | 0.00 | 0.00 | 0.00 | 52 | 1009.9 | |
| 20260504015516 | 8 | 0.0 | 0.0 | 0.00 | 0.00 | 0.00 | 49 | 1009.9 | |
| 20260504014536 | 8 | 0.0 | 0.0 | 0.00 | 0.00 | 0.00 | 49 | 1009.9 | |
| 20260504013516 | 8 | 0.0 | 0.0 | 0.00 | 0.00 | 0.00 | 45 | 1009.8 | |
| 20260504012536 | 9 | 0.0 | 1.6 | 0.00 | 0.00 | 0.00 | 44 | 1009.7 | |
| 20260504011516 | 9 | 238 | 0.0 | 6.4 | 0.00 | 0.00 | 0.00 | 43 | 1009.6 |
| 20260504010516 | 9 | 245 | 0.0 | 6.4 | 0.00 | 0.00 | 0.00 | 43 | 1009.5 |
| 20260504005536 | 10 | 191 | 0.0 | 4.8 | 0.00 | 0.00 | 0.00 | 43 | 1009.2 |
| 20260504004516 | 10 | 250 | 0.0 | 3.2 | 0.00 | 0.00 | 0.00 | 43 | 1009.1 |
| 20260504003516 | 10 | 250 | 0.0 | 1.6 | 0.00 | 0.00 | 0.00 | 42 | 1009.0 |
| 20260504002516 | 10 | 249 | 0.0 | 3.2 | 0.00 | 0.00 | 0.00 | 41 | 1008.8 |
| 20260504001556 | 10 | 0.0 | 4.8 | 0.00 | 0.00 | 0.00 | 39 | 1008.7 | |
| 20260504000516 | 11 | 250 | 1.6 | 11.3 | 0.00 | 0.00 | 0.00 | 37 | 1008.5 |
| 20260503235516 | 11 | 276 | 1.6 | 8.0 | 0.00 | 0.00 | 0.00 | 36 | 1008.4 |
| 20260503234516 | 11 | 269 | 4.8 | 19.3 | 0.00 | 0.00 | 0.00 | 34 | 1008.1 |
| 20260503233516 | 12 | 276 | 3.2 | 9.7 | 0.00 | 0.00 | 0.00 | 33 | 1007.9 |
| 20260503232516 | 12 | 258 | 3.2 | 8.0 | 0.00 | 0.00 | 0.00 | 32 | 1007.8 |
| 20260503231516 | 12 | 294 | 3.2 | 12.9 | 0.00 | 0.00 | 0.00 | 30 | 1007.6 |
| 20260503230516 | 12 | 272 | 3.2 | 14.5 | 0.00 | 0.00 | 0.00 | 29 | 1007.5 |
| 20260503225516 | 13 | 262 | 3.2 | 8.0 | 0.00 | 0.00 | 0.00 | 27 | 1007.4 |
| 20260503224556 | 13 | 266 | 3.2 | 11.3 | 0.00 | 0.00 | 0.00 | 28 | 1007.4 |
| 20260503223515 | 13 | 263 | 3.2 | 11.3 | 0.00 | 0.00 | 0.00 | 27 | 1007.3 |
| 20260503222515 | 14 | 238 | 3.2 | 12.9 | 0.00 | 0.00 | 0.00 | 27 | 1007.3 |
| 20260503221536 | 15 | 271 | 1.6 | 8.0 | 0.00 | 0.00 | 0.00 | 29 | 1007.3 |
| 20260503220516 | 15 | 262 | 3.2 | 9.7 | 0.00 | 0.00 | 0.00 | 31 | 1007.3 |
| 20260503215515 | 14 | 290 | 1.6 | 14.5 | 0.00 | 0.00 | 0.00 | 32 | 1007.4 |
| 20260503214515 | 14 | 273 | 3.2 | 12.9 | 0.00 | 0.00 | 0.00 | 31 | 1007.4 |
| 20260503213515 | 14 | 248 | 4.8 | 12.9 | 0.00 | 0.00 | 0.00 | 31 | 1007.4 |
| 20260503212515 | 13 | 229 | 3.2 | 8.0 | 0.00 | 0.00 | 0.00 | 31 | 1007.5 |
| 20260503211515 | 13 | 262 | 1.6 | 8.0 | 0.00 | 0.00 | 0.00 | 33 | 1007.6 |
| 20260503210515 | 13 | 275 | 3.2 | 14.5 | 0.00 | 0.00 | 0.00 | 35 | 1007.7 |
| 20260503205515 | 13 | 343 | 0.0 | 12.9 | 0.00 | 0.00 | 0.00 | 34 | 1007.8 |
| 20260503204515 | 13 | 250 | 3.2 | 8.0 | 0.00 | 0.00 | 0.00 | 34 | 1007.9 |
| 20260503203515 | 13 | 261 | 3.2 | 12.9 | 0.00 | 0.00 | 0.00 | 34 | 1008.0 |
| 20260503202536 | 12 | 235 | 4.8 | 14.5 | 0.00 | 0.00 | 0.00 | 34 | 1008.0 |
| 20260503201515 | 12 | 277 | 1.6 | 6.4 | 0.00 | 0.00 | 0.00 | 36 | 1008.0 |
| 20260503200515 | 11 | 272 | 1.6 | 14.5 | 0.00 | 0.00 | 0.00 | 36 | 1008.1 |
| 20260503195535 | 11 | 260 | 1.6 | 4.8 | 0.00 | 0.00 | 0.00 | 37 | 1008.2 |
| 20260503194515 | 11 | 245 | 0.0 | 8.0 | 0.00 | 0.00 | 0.00 | 39 | 1008.4 |
| 20260503193515 | 11 | 286 | 3.2 | 8.0 | 0.00 | 0.00 | 0.00 | 38 | 1008.5 |
| 20260503192536 | 11 | 311 | 1.6 | 6.4 | 0.00 | 0.00 | 0.00 | 39 | 1008.6 |
| 20260503191515 | 11 | 240 | 1.6 | 12.9 | 0.00 | 0.00 | 0.00 | 40 | 1008.7 |
| 20260503190515 | 11 | 243 | 1.6 | 8.0 | 0.00 | 0.00 | 0.00 | 39 | 1008.8 |
| 20260503185535 | 11 | 281 | 4.8 | 8.0 | 0.00 | 0.00 | 0.00 | 38 | 1008.9 |
| 20260503184535 | 11 | 262 | 4.8 | 11.3 | 0.00 | 0.00 | 0.00 | 39 | 1009.0 |
| 20260503183515 | 11 | 246 | 3.2 | 9.7 | 0.00 | 0.00 | 0.00 | 40 | 1009.1 |
| 20260503182535 | 11 | 257 | 1.6 | 8.0 | 0.00 | 0.00 | 0.00 | 40 | 1009.2 |
| 20260503181515 | 10 | 268 | 3.2 | 17.7 | 0.00 | 0.00 | 0.00 | 40 | 1009.2 |
| 20260503180515 | 10 | 253 | 3.2 | 8.0 | 0.00 | 0.00 | 0.00 | 40 | 1009.3 |
| 20260503175515 | 10 | 267 | 3.2 | 9.7 | 0.00 | 0.00 | 0.00 | 39 | 1009.3 |
| 20260503174515 | 10 | 257 | 3.2 | 14.5 | 0.00 | 0.00 | 0.00 | 38 | 1009.4 |
| 20260503173514 | 10 | 290 | 1.6 | 9.7 | 0.00 | 0.00 | 0.00 | 40 | 1009.4 |
| 20260503172517 | 10 | 278 | 3.2 | 11.3 | 0.00 | 0.00 | 0.00 | 38 | 1009.4 |
| 20260503171515 | 10 | 266 | 3.2 | 12.9 | 0.00 | 0.00 | 0.00 | 39 | 1009.3 |
| 20260503170537 | 10 | 308 | 3.2 | 12.9 | 0.00 | 0.00 | 0.00 | 39 | 1009.3 |
| 20260503150637 | 9 | 265 | 4.8 | 12.9 | 0.00 | 0.00 | 0.00 | 44 | 1009.5 |
| 20260503130516 | 7 | 249 | 3.2 | 8.0 | 0.00 | 0.00 | 0.00 | 66 | 1010.4 |